Glendale Luke AFB, AZ

7:10 AM MST on December 15, 2019 (GMT -0700)
Luke Air Force Base

Weather History for KLUF - August, 2019

Change the Weather History Date:

Monday, August 12, 2019

  Actual Average Record
Temperature  
Mean Temperature 94 °F -  
Max Temperature 105 °F 105 °F 113 °F (1962)
Min Temperature 84 °F 73 °F 59 °F (1949)
Cooling Degree Days 30    
Growing Degree Days 44 (Base 50)    
Moisture  
Dew Point 37 °F    
Average Humidity 14    
Maximum Humidity 24    
Minimum Humidity 8    
Precipitation  
Precipitation 0.00 in - - ()
Sea Level Pressure  
Sea Level Pressure 29.84 in    
Wind  
Wind Speed 6 mph (WSW)    
Max Wind Speed 17 mph    
Max Gust Speed 25 mph    
Visibility 10 miles    
Events      
Averages and records for this station are not official NWS values.
T = Trace of Precipitation, MM = Missing Value Source: NWS Daily Summary

Daily Weather History Graph

Daily Weather History Graph

Search for Another Location

Airport or City:

Astronomy

Aug. 12, 2019 Rise Set
Actual Time 5:49 AM MST 7:19 PM MST
Civil Twilight 5:23 AM MST 7:45 PM MST
Nautical Twilight 4:51 AM MST 8:17 PM MST
Astronomical Twilight 4:18 AM MST 8:50 PM MST
Moon 5:45 PM MST (8/12) 3:08 AM MST (8/12)
Length of Visible Light 14h 22m
Length of Day
13h 29m
Waxing Gibbous, 93% of the Moon is Illuminated
Aug 12
Waxing Gibbous
Aug 15
Full
Aug 23
Last Quarter
Aug 30
New
Sep 5
First Quarter

Hourly Weather History & Observations

Time (MST) Temp. Dew Point Humidity Pressure Visibility Wind Dir Wind Speed Gust Speed Precip Events Conditions
12:58 AM 91.9 °F 42.3 °F 18% 29.81 in 10.0 mi SW 10.4 mph - N/A   Clear
1:58 AM 90.3 °F 41.0 °F 18% 29.81 in 10.0 mi SW 11.5 mph - N/A   Scattered Clouds
2:28 AM 89.6 °F 41.0 °F 18% 29.81 in 10.0 mi SW 6.9 mph - N/A   Mostly Cloudy
2:58 AM 88.3 °F 39.4 °F 18% 29.83 in 10.0 mi WNW 3.5 mph - N/A   Mostly Cloudy
3:48 AM 89.6 °F 33.8 °F 14% 29.83 in 10.0 mi WSW 9.2 mph - N/A   Partly Cloudy
3:58 AM 88.7 °F 33.4 °F 14% 29.83 in 10.0 mi West 8.1 mph - N/A   Partly Cloudy
4:48 AM 87.8 °F 33.8 °F 15% 29.86 in 10.0 mi SW 5.8 mph - N/A   Mostly Cloudy
4:58 AM 87.1 °F 35.4 °F 16% 29.86 in 10.0 mi SW 3.5 mph - N/A   Scattered Clouds
5:58 AM 84.0 °F 37.2 °F 19% 29.88 in 10.0 mi South 4.6 mph - N/A   Clear
6:58 AM 84.7 °F 43.9 °F 24% 29.89 in 10.0 mi Calm Calm - N/A   Clear
7:58 AM 90.0 °F 37.8 °F 16% 29.91 in 10.0 mi Calm Calm - N/A   Clear
8:58 AM 92.5 °F 30.4 °F 11% 29.91 in 10.0 mi Calm Calm - N/A   Clear
9:58 AM 96.1 °F 30.7 °F 10% 29.91 in 10.0 mi South 4.6 mph - N/A   Clear
10:58 AM 99.0 °F 39.6 °F 13% 29.91 in 10.0 mi Calm Calm - N/A   Clear
11:58 AM 100.0 °F 38.3 °F 12% 29.89 in 10.0 mi Calm Calm - N/A   Partly Cloudy
12:58 PM 101.8 °F 32.4 °F 9% 29.87 in 10.0 mi Calm Calm - N/A   Partly Cloudy
1:58 PM 103.8 °F 36.5 °F 10% 29.86 in 10.0 mi WSW 9.2 mph - N/A   Clear
2:58 PM 104.2 °F 36.7 °F 10% 29.82 in 10.0 mi West 6.9 mph - N/A   Clear
3:18 PM 105.8 °F 35.6 °F 9% 29.81 in 10.0 mi SW 17.3 mph 25.3 mph N/A   Clear
3:58 PM 105.1 °F 31.8 °F 8% 29.81 in 10.0 mi SSW 10.4 mph 17.3 mph N/A   Clear
4:58 PM 104.9 °F 31.6 °F 8% 29.78 in 10.0 mi South 5.8 mph - N/A   Clear
5:58 PM 104.4 °F 31.3 °F 8% 29.77 in 10.0 mi Calm Calm - N/A   Clear
6:58 PM 103.5 °F 33.6 °F 9% 29.76 in 10.0 mi West 3.5 mph - N/A   Clear
7:58 PM 99.7 °F 37.9 °F 12% 29.78 in 10.0 mi Calm Calm - N/A   Clear
8:58 PM 94.5 °F 41.4 °F 16% 29.80 in 10.0 mi NW 6.9 mph - N/A   Clear
9:58 PM 91.4 °F 43.3 °F 19% 29.81 in 10.0 mi Calm Calm - N/A   Clear
10:58 PM 89.8 °F 39.2 °F 17% 29.81 in 10.0 mi North 8.1 mph - N/A   Clear
11:58 PM 90.9 °F 35.1 °F 14% 29.83 in 10.0 mi Calm Calm - N/A   Clear